Change the Weather History Date:

Thursday, August 1, 2013

  Actual Average Record
Temperature  
Mean Temperature 86 °F -  
Max Temperature 94 °F 90 °F 98 °F (2000)
Min Temperature 78 °F 77 °F 77 °F (1999)
Cooling Degree Days 21    
Growing Degree Days 36 (Base 50)    
Moisture  
Dew Point 74 °F    
Average Humidity 67    
Maximum Humidity 89    
Minimum Humidity 44    
Precipitation  
Precipitation 0.00 in 0.24 in - ()
Sea Level Pressure  
Sea Level Pressure 29.66 in    
Wind  
Wind Speed 7 mph ()    
Max Wind Speed 14 mph    
Max Gust Speed -    
Visibility 6.2 miles    
Events      
Averages and records for this station are not official NWS values.
T = Trace of Precipitation, MM = Missing Value Source: Averaged Metar Reports

Daily Weather History Graph

Daily Weather History Graph

Search for Another Location

Airport or City:

Trip Planner

Search our weather history database for the weather conditions in past years. The results will help you decide how hot, cold, wet, or windy it might be!

Date:

Astronomy

Aug. 01, 2013 Rise Set
Actual Time 6:01 AM ICT 6:45 PM ICT
Civil Twilight 5:39 AM ICT 7:08 PM ICT
Nautical Twilight 5:12 AM ICT 7:34 PM ICT
Astronomical Twilight 4:45 AM ICT 8:01 PM ICT
Moon 1:18 AM ICT (8/1) 2:22 PM ICT (8/1)
Length of Visible Light 13h 29m
Length of Day
12h 44m
Waning Crescent, 27% of the Moon is Illuminated
Aug 1
Waning Crescent
Aug 7
New
Aug 14
First Quarter
Aug 21
Full
Aug 28
Last Quarter

Hourly Weather History & Observations

Time (ICT) Temp. Heat Index Dew Point Humidity Pressure Visibility Wind Dir Wind Speed Gust Speed Precip Events Conditions
12:00 AM 82.4 °F 88.2 °F 73.4 °F 74% 29.71 in 6.2 mi West 9.2 mph - N/A   Mostly Cloudy
12:30 AM 82.4 °F 88.2 °F 73.4 °F 74% 29.71 in 6.2 mi West 9.2 mph - N/A   Mostly Cloudy
1:00 AM 80.6 °F 85.4 °F 73.4 °F 79% 29.68 in 6.2 mi West 5.8 mph - N/A   Mostly Cloudy
1:30 AM 80.6 °F 85.4 °F 73.4 °F 79% 29.68 in 6.2 mi West 5.8 mph - N/A   Mostly Cloudy
2:00 AM 80.6 °F 85.4 °F 73.4 °F 79% 29.68 in 6.2 mi West 5.8 mph - N/A   Mostly Cloudy
2:30 AM 80.6 °F 85.4 °F 73.4 °F 79% 29.65 in 6.2 mi West 5.8 mph - N/A   Mostly Cloudy
3:00 AM 80.6 °F 85.4 °F 73.4 °F 79% 29.65 in 6.2 mi West 5.8 mph - N/A   Mostly Cloudy
3:30 AM 80.6 °F 85.4 °F 73.4 °F 79% 29.65 in 6.2 mi West 4.6 mph - N/A   Mostly Cloudy
4:00 AM 80.6 °F 85.4 °F 73.4 °F 79% 29.65 in 6.2 mi WSW 3.5 mph - N/A   Mostly Cloudy
4:30 AM 80.6 °F 85.4 °F 73.4 °F 79% 29.65 in 6.2 mi West 5.8 mph - N/A   Mostly Cloudy
5:00 AM 80.6 °F 85.4 °F 73.4 °F 79% 29.65 in 6.2 mi West 5.8 mph - N/A   Mostly Cloudy
5:30 AM 78.8 °F - 75.2 °F 89% 29.65 in 6.2 mi West 6.9 mph - N/A   Mostly Cloudy
6:00 AM 78.8 °F - 73.4 °F 83% 29.65 in 6.2 mi SSW 5.8 mph - N/A   Mostly Cloudy
6:30 AM 78.8 °F - 73.4 °F 83% 29.65 in 6.2 mi WSW 4.6 mph - N/A   Mostly Cloudy
7:00 AM 80 °F - 74 °F 79% 29.69 in 6 mi West 4.6 mph - -   Scattered Clouds
7:00 AM 80.6 °F 86.2 °F 75.2 °F 84% 29.68 in 6.2 mi West 4.6 mph - N/A   Mostly Cloudy
7:30 AM 80.6 °F 86.2 °F 75.2 °F 84% 29.68 in 6.2 mi West 3.5 mph - N/A   Mostly Cloudy
8:00 AM 82.4 °F 89.5 °F 75.2 °F 79% 29.71 in 6.2 mi West 8.1 mph - N/A   Mostly Cloudy
8:30 AM 84.2 °F 90.9 °F 73.4 °F 70% 29.71 in 6.2 mi West 9.2 mph - N/A   Mostly Cloudy
9:00 AM 86.0 °F 95.1 °F 75.2 °F 70% 29.71 in 6.2 mi West 5.8 mph - N/A   Mostly Cloudy
9:30 AM 86.0 °F 95.1 °F 75.2 °F 70% 29.71 in 6.2 mi WSW 8.1 mph - N/A   Mostly Cloudy
10:00 AM 86.0 °F 93.4 °F 73.4 °F 66% 29.71 in 6.2 mi West 6.9 mph - N/A   Mostly Cloudy
10:30 AM 87.8 °F 95.6 °F 73.4 °F 62% 29.71 in 6.2 mi West 9.2 mph - N/A   Mostly Cloudy
11:00 AM 89.6 °F 98.2 °F 73.4 °F 59% 29.68 in 6.2 mi West 4.6 mph - N/A   Mostly Cloudy
11:30 AM 91.4 °F 100.1 °F 73.4 °F 55% 29.68 in 6.2 mi West 8.1 mph - N/A   Mostly Cloudy
12:00 PM 91.4 °F 98.4 °F 71.6 °F 52% 29.68 in 6.2 mi NW 9.2 mph - N/A   Mostly Cloudy
12:30 PM 91.4 °F 100.1 °F 73.4 °F 55% 29.68 in 6.2 mi WNW 9.2 mph - N/A   Mostly Cloudy
1:00 PM 91 °F - 72 °F 44% 29.68 in 6 mi West 11.5 mph - -   Scattered Clouds
1:00 PM 91.4 °F 98.4 °F 71.6 °F 52% 29.68 in 6.2 mi West 11.5 mph - N/A   Mostly Cloudy
1:30 PM 91.4 °F 100.1 °F 73.4 °F 55% 29.65 in 6.2 mi WNW 9.2 mph - N/A   Mostly Cloudy
2:00 PM 91.4 °F 100.1 °F 73.4 °F 55% 29.65 in 6.2 mi West 9.2 mph - N/A   Mostly Cloudy
2:30 PM 93.2 °F 102.4 °F 73.4 °F 52% 29.62 in 6.2 mi West 11.5 mph - N/A   Mostly Cloudy
3:00 PM 95.0 °F 103.2 °F 71.6 °F 47% 29.59 in 6.2 mi NW 9.2 mph - N/A   Mostly Cloudy
3:30 PM 93.2 °F 102.4 °F 73.4 °F 52% 29.59 in 6.2 mi West 11.5 mph - N/A   Mostly Cloudy
4:00 PM 93.2 °F 100.5 °F 71.6 °F 49% 29.59 in 6.2 mi NW 13.8 mph - N/A   Mostly Cloudy
4:30 PM 93.2 °F 100.5 °F 71.6 °F 49% 29.59 in 6.2 mi NW 13.8 mph - N/A   Mostly Cloudy
5:00 PM 93.2 °F 100.5 °F 71.6 °F 49% 29.59 in 6.2 mi WNW 11.5 mph - N/A   Mostly Cloudy
5:30 PM 91.4 °F 100.1 °F 73.4 °F 55% 29.59 in 6.2 mi West 11.5 mph - N/A   Mostly Cloudy
6:00 PM 91.4 °F 100.1 °F 73.4 °F 55% 29.59 in 6.2 mi West 11.5 mph - N/A   Mostly Cloudy
7:00 PM 89 °F - 74 °F 52% 29.62 in 6 mi West 9.2 mph - -   Scattered Clouds
8:00 PM 87.8 °F 97.6 °F 75.2 °F 66% 29.62 in 6.2 mi West 9.2 mph - N/A   Mostly Cloudy
8:30 PM 87.8 °F 97.6 °F 75.2 °F 66% 29.65 in 6.2 mi West 9.2 mph - N/A   Mostly Cloudy
9:00 PM 86.0 °F 95.1 °F 75.2 °F 70% 29.65 in 6.2 mi West 9.2 mph - N/A   Mostly Cloudy
9:30 PM 86.0 °F 95.1 °F 75.2 °F 70% 29.65 in 6.2 mi West 8.1 mph - N/A   Mostly Cloudy
10:00 PM 86.0 °F 93.4 °F 73.4 °F 66% 29.68 in 6.2 mi West 5.8 mph - N/A   Mostly Cloudy
10:30 PM 86.0 °F 95.1 °F 75.2 °F 70% 29.68 in 6.2 mi West 9.2 mph - N/A   Mostly Cloudy
11:00 PM 84.2 °F 92.3 °F 75.2 °F 74% 29.71 in 6.2 mi WSW 9.2 mph - N/A   Mostly Cloudy
11:30 PM 84.2 °F 92.3 °F 75.2 °F 74% 29.68 in 6.2 mi West 5.8 mph - N/A   Mostly Cloudy